Weather History for LFJL - October, 2012

Change the Weather History Date:

Saturday, October 27, 2012

  Actual Average (LFSN) Record (LFSN)
Temperature  
Mean Temperature 36 °F -  
Max Temperature 42 °F 54 °F 71 °F (2006)
Min Temperature 30 °F 43 °F 32 °F (2011)
Degree Days  
Heating Degree Days 29    
Moisture  
Dew Point 29 °F    
Average Humidity 74    
Maximum Humidity 100    
Minimum Humidity 49    
Precipitation  
Precipitation 0.00 in - - ()
Sea Level Pressure  
Sea Level Pressure 29.60 in    
Wind  
Wind Speed 13 mph ()    
Max Wind Speed 17 mph    
Max Gust Speed 28 mph    
Visibility 6.1 miles    
Events Rain    
Averages and records for this station are not official NWS values.
T = Trace of Precipitation, MM = Missing Value Source: Averaged Metar Reports

Daily Weather History Graph

Daily Weather History Graph

Search for Another Location

Airport or City:

Trip Planner

Search our weather history database for the weather conditions in past years. The results will help you decide how hot, cold, wet, or windy it might be!

Date:

Astronomy

Oct. 27, 2012 Rise Set
Actual Time 8:14 AM CEST 6:22 PM CEST
Civil Twilight 7:41 AM CEST 6:55 PM CEST
Nautical Twilight 7:04 AM CEST 7:32 PM CEST
Astronomical Twilight 6:28 AM CEST 8:08 PM CEST
Moon 5:06 PM CEST (10/27) 5:45 AM CEST (10/27)
Length of Visible Light 11h 13m
Length of Day
10h 07m
Waxing Gibbous, 95% of the Moon is Illuminated
Oct 27
Waxing Gibbous
Oct 29
Full
Nov 7
Last Quarter
Nov 13
New
Nov 20
First Quarter

Hourly Weather History & Observations

Time (CEST) Temp. Windchill Dew Point Humidity Pressure Visibility Wind Dir Wind Speed Gust Speed Precip Events Conditions
12:00 AM 42.8 °F 35.4 °F 39.2 °F 87% 29.47 in 6.2 mi NNE 15.0 mph - N/A   Overcast
12:30 AM 41.0 °F 32.5 °F 39.2 °F 93% 29.44 in - NNE 17.3 mph - N/A Rain Light Rain
1:00 AM 41.0 °F 33.1 °F 39.2 °F 93% 29.44 in - NNE 15.0 mph - N/A   Overcast
1:30 AM 41.0 °F 32.5 °F 39.2 °F 93% 29.44 in 3.1 mi NNE 17.3 mph - N/A   Light Drizzle
2:00 AM 41.0 °F 33.9 °F 39.2 °F 93% 29.44 in 5.6 mi NNE 12.7 mph - N/A   Light Drizzle
2:30 AM 41.0 °F 33.5 °F 39.2 °F 93% 29.44 in - NNE 13.8 mph - N/A Rain Rain
3:00 AM 39.2 °F 31.2 °F 39.2 °F 100% 29.44 in 6.2 mi NNE 13.8 mph - N/A Rain Light Rain
3:30 AM 39.2 °F 31.2 °F 37.4 °F 93% 29.42 in 6.2 mi NNE 13.8 mph - N/A   Overcast
4:00 AM 39.2 °F 32.0 °F 37.4 °F 93% 29.42 in 6.2 mi North 11.5 mph - N/A   Overcast
4:30 AM 37.4 °F 28.9 °F 35.6 °F 93% 29.42 in 6.2 mi North 13.8 mph - N/A   Overcast
5:00 AM 37.4 °F 28.5 °F 35.6 °F 93% 29.42 in 6.2 mi North 15.0 mph - N/A   Overcast
5:30 AM 37.4 °F 28.5 °F 33.8 °F 87% 29.42 in 6.2 mi North 15.0 mph - N/A   Overcast
6:00 AM 37.4 °F 27.8 °F 33.8 °F 87% 29.44 in 6.2 mi North 17.3 mph - N/A Rain Light Rain
6:30 AM 37.4 °F 28.5 °F 33.8 °F 87% 29.44 in 6.2 mi North 15.0 mph - N/A Rain Light Rain
7:00 AM 37.4 °F 29.3 °F 33.8 °F 87% 29.44 in 6.2 mi North 12.7 mph - N/A Rain Light Rain
7:30 AM 37.4 °F 29.3 °F 32.0 °F 81% 29.44 in 6.2 mi North 12.7 mph - N/A Rain Light Rain
8:00 AM 35.6 °F 25.9 °F 32.0 °F 87% 29.47 in 6.2 mi North 16.1 mph 27.6 mph N/A   Overcast
8:30 AM 35.6 °F 25.5 °F 28.4 °F 75% 29.47 in 6.2 mi North 17.3 mph - N/A   Overcast
9:00 AM 35.6 °F 26.2 °F 28.4 °F 75% 29.50 in 6.2 mi North 15.0 mph - N/A   Mostly Cloudy
9:30 AM 33.8 °F 23.9 °F 28.4 °F 81% 29.50 in 6.2 mi North 15.0 mph - N/A   Mostly Cloudy
10:00 AM 33.8 °F 23.9 °F 28.4 °F 81% 29.53 in 6.2 mi North 15.0 mph 27.6 mph N/A   Mostly Cloudy
10:30 AM 33.8 °F 24.8 °F 26.6 °F 75% 29.53 in 6.2 mi North 12.7 mph - N/A   Mostly Cloudy
11:00 AM 35.6 °F 26.6 °F 28.4 °F 75% 29.56 in 6.2 mi North 13.8 mph - N/A   Mostly Cloudy
11:30 AM 35.6 °F 26.6 °F 28.4 °F 75% 29.56 in 6.2 mi North 13.8 mph - N/A   Overcast
12:00 PM 35.6 °F 26.6 °F 28.4 °F 75% 29.59 in 6.2 mi North 13.8 mph - N/A   Overcast
12:30 PM 37.4 °F 28.9 °F 28.4 °F 70% 29.59 in 6.2 mi North 13.8 mph - N/A   Overcast
1:00 PM 37.4 °F 28.9 °F 28.4 °F 70% 29.59 in 6.2 mi North 13.8 mph - N/A   Overcast
1:30 PM 37.4 °F 29.3 °F 28.4 °F 70% 29.62 in 6.2 mi North 12.7 mph - N/A   Overcast
2:00 PM 37.4 °F 28.2 °F 28.4 °F 70% 29.62 in 6.2 mi North 16.1 mph - N/A   Overcast
2:30 PM 37.4 °F 28.9 °F 28.4 °F 70% 29.62 in 6.2 mi North 13.8 mph - N/A   Overcast
3:00 PM 39.2 °F 30.8 °F 28.4 °F 65% 29.65 in 6.2 mi North 15.0 mph - N/A   Overcast
3:30 PM 37.4 °F 28.5 °F 26.6 °F 65% 29.65 in 6.2 mi NNE 15.0 mph - N/A   Overcast
4:00 PM 39.2 °F 30.5 °F 26.6 °F 61% 29.68 in 6.2 mi North 16.1 mph - N/A   Overcast
4:30 PM 39.2 °F 31.2 °F 26.6 °F 61% 29.68 in 6.2 mi North 13.8 mph - N/A   Overcast
5:00 PM 39.2 °F 30.2 °F 24.8 °F 56% 29.71 in 6.2 mi NNE 17.3 mph - N/A   Overcast
5:30 PM 39.2 °F 30.2 °F 24.8 °F 56% 29.71 in 6.2 mi NNE 17.3 mph - N/A   Overcast
6:00 PM 39.2 °F 32.0 °F 24.8 °F 56% 29.74 in 6.2 mi NNE 11.5 mph - N/A   Unknown
6:30 PM 39.2 °F 31.2 °F 21.2 °F 49% 29.74 in 6.2 mi NNE 13.8 mph - N/A   Unknown
7:00 PM 37.4 °F 30.3 °F 21.2 °F 52% 29.77 in 6.2 mi North 10.4 mph - N/A   Unknown
7:30 PM 37.4 °F 31.4 °F 21.2 °F 52% 29.80 in 6.2 mi North 8.1 mph - N/A   Unknown
8:00 PM 35.6 °F 28.6 °F 19.4 °F 52% 29.80 in 6.2 mi North 9.2 mph - N/A   Unknown
8:30 PM 33.8 °F 25.8 °F 19.4 °F 56% 29.83 in 6.2 mi North 10.4 mph - N/A   Unknown
9:00 PM 33.8 °F 27.0 °F 19.4 °F 56% 29.83 in 6.2 mi North 8.1 mph - N/A   Unknown
9:30 PM 33.8 °F 27.0 °F 17.6 °F 52% 29.83 in 6.2 mi North 8.1 mph - N/A   Unknown
10:00 PM 32.0 °F 26.4 °F 17.6 °F 55% 29.86 in 6.2 mi North 5.8 mph - N/A   Unknown
10:30 PM 32.0 °F 25.6 °F 19.4 °F 60% 29.86 in 6.2 mi North 6.9 mph - N/A   Unknown
11:00 PM 30.2 °F 25.4 °F 19.4 °F 64% 29.86 in 6.2 mi North 4.6 mph - N/A   Unknown
11:30 PM 30.2 °F 24.3 °F 19.4 °F 64% 29.86 in 6.2 mi North 5.8 mph - N/A   Unknown